Location: F?ge?el
(45.8833°N, 22.5833°E)
Time: 12:28:58
(UTC+00:00)

Cosmos 1300 Rocket - Pass Details

Date: 17 November 2025
Orbit: 594 x 620 km, 82.5° (Epoch: 11 December)

Event Time Altitude Azimuth Distance (km) Brightness Sun altitude
Rises 15:35:00 0° 188° (S) 2,880 7.4 -7.0°
Reaches altitude 10° 15:37:13 10° 189° (S) 1,977 6.6 -7.4°
Maximum altitude 15:41:36 86° 280° (W) 624 3.6 -8.1°
Drops below altitude 10° 15:46:00 10° 8° (N) 1,980 5.9 -8.8°
Sets 15:48:13 0° 9° (N) 2,885 6.7 -9.2°
